Location: Atherton
(17.2661°S, 145.4859°E)
Time: 23:07:16
(UTC+10:00)

Hubble Space Telescope - Pass Details

Date: 22 May 2025
Orbit: 488 x 491 km, 28.5° (Epoch: 15 June)

Event Time Altitude Azimuth Distance (km) Brightness Sun altitude
Rises 19:09:12 0° 237° (WSW) 2,566 4.8 -18.3°
Reaches altitude 10° 19:11:36 10° 226° (SW) 1,684 3.7 -18.9°
Enters shadow 19:14:40 29° 175° (S) 920 1.7 -19.6°
